Hourly Data Report for September 21, 2016

All times are specified in Local Standard Time (LST). Add 1 hour to adjust for Daylight Saving Time where and when it is observed.

CORAL HARBOUR A
NUNAVUT

64°11'36.000" N
83°21'34.000" W
62.20 m
2301002
71915
YZS

Download Data

Hourly Data (September 2016)
Hourly Data Report for September 21, 2016
Temp Definition
°C
Dew Point Temp Definition
°C
Rel Hum Definition
%
Wind Dir Definition
10's deg

Wind Spd Definition
km/h
Visibility Definition
km
Stn Press Definition
kPa
Hmdx Definition


Wind Chill Definition


Weather Definition


TIME
00:00 3.4 1.9 90 2 35 12.9 98.71     Rain
01:00 3.3 1.8 90 1 34 12.9 98.74     Rain
02:00 2.8 1.5 91 35 35 12.9 98.71     Rain
03:00 2.6 1.4 92 34 31 12.9 98.71     Rain
04:00
05:00 2.8 1.2 89 35 36 24.1 98.70     LegendNANA
06:00 2.9 1.3 89 35 27 19.3 98.71     Rain
07:00 3.0 1.2 88 1 34 24.1 98.74     Rain
08:00 3.2 1.4 88 3 34 24.1 98.77     LegendNANA
09:00 3.7 1.7 87 4 29 24.1 98.87     LegendNANA
10:00 3.8 1.2 83 3 55 24.1 98.87     Cloudy
11:00 4.2 1.6 83 3 50 24.1 98.91     LegendNANA
12:00 4.2 1.6 83 3 61 24.1 98.94     LegendNANA
13:00 3.5 0.9 83 4 59 24.1 98.98     Cloudy
14:00 3.0 0.9 86 3 59 19.3 99.03     Rain
15:00 3.0 1.1 87 3 62 19.3 99.07     Rain
16:00 3.0 0.7 85 3 62 19.3 99.16     Rain
17:00 2.8 0.5 85 1 46 19.3 99.30     Rain
18:00 2.0 0.4 89 36 46 19.3 99.45     Rain
19:00 1.8 0.0 88 36 43 24.1 99.57     Rain
20:00 1.7 -0.2 87 1 29 24.1 99.67     LegendNANA
21:00 1.7 0.1 89 1 26 24.1 99.72     LegendNANA
22:00 1.7 0.1 89 36 34 24.1 99.70     Cloudy
23:00 1.6 -0.5 86 36 21 24.1 99.75     LegendNANA

Notes on Data Quality.

Legend

  • E = Estimated
  • M = Missing
  • NA = Not Available
Date modified: